owner,sensor,date,latitude,longitude,sea_surface_height_above_sea_level,qcFlag 
TCOON,ioos:station:TCOON:031:1,2016-08-01T00:18:00Z,28.4073,-96.7122,0.61,1111122 
TCOON,ioos:station:TCOON:031:1,2016-08-01T01:18:00Z,28.4073,-96.7122,0.61,1111122 
TCOON,ioos:station:TCOON:031:1,2016-08-01T02:18:00Z,28.4073,-96.7122,0.616,1111122 
TCOON,ioos:station:TCOON:031:1,2016-08-01T03:18:00Z,28.4073,-96.7122,0.608,1111122 
TCOON,ioos:station:TCOON:031:1,2016-08-01T04:18:00Z,28.4073,-96.7122,0.621,1111122 
TCOON,ioos:station:TCOON:031:1,2016-08-01T05:18:00Z,28.4073,-96.7122,0.624,1111122 
TCOON,ioos:station:TCOON:031:1,2016-08-01T06:18:00Z,28.4073,-96.7122,0.618,1111122 
TCOON,ioos:station:TCOON:031:1,2016-08-01T07:18:00Z,28.4073,-96.7122,0.593,1111122 
TCOON,ioos:station:TCOON:031:1,2016-08-01T08:18:00Z,28.4073,-96.7122,0.59,1111122 
TCOON,ioos:station:TCOON:031:1,2016-08-01T09:18:00Z,28.4073,-96.7122,0.571,1111122 
TCOON,ioos:station:TCOON:031:1,2016-08-01T10:18:00Z,28.4073,-96.7122,0.557,1111122 
TCOON,ioos:station:TCOON:031:1,2016-08-01T11:12:00Z,28.4073,-96.7122,0.536,1111122 
TCOON,ioos:station:TCOON:031:1,2016-08-01T12:18:00Z,28.4073,-96.7122,0.529,1111122 
TCOON,ioos:station:TCOON:031:1,2016-08-01T13:18:00Z,28.4073,-96.7122,0.527,1111122 
TCOON,ioos:station:TCOON:031:1,2016-08-01T14:18:00Z,28.4073,-96.7122,0.538,1111122 
TCOON,ioos:station:TCOON:031:1,2016-08-01T15:18:00Z,28.4073,-96.7122,0.534,1111122 
TCOON,ioos:station:TCOON:031:1,2016-08-01T16:18:00Z,28.4073,-96.7122,0.537,1111122 
TCOON,ioos:station:TCOON:031:1,2016-08-01T17:18:00Z,28.4073,-96.7122,0.527,1111122 
TCOON,ioos:station:TCOON:031:1,2016-08-01T18:18:00Z,28.4073,-96.7122,0.557,1111122 
TCOON,ioos:station:TCOON:031:1,2016-08-01T19:24:00Z,28.4073,-96.7122,0.573,1111122 
TCOON,ioos:station:TCOON:031:1,2016-08-01T20:18:00Z,28.4073,-96.7122,0.58,1111122 
TCOON,ioos:station:TCOON:031:1,2016-08-01T21:18:00Z,28.4073,-96.7122,0.593,1111122 
TCOON,ioos:station:TCOON:031:1,2016-08-01T22:18:00Z,28.4073,-96.7122,0.592,1111122 
TCOON,ioos:station:TCOON:031:1,2016-08-01T23:18:00Z,28.4073,-96.7122,0.604,1111122 
TCOON,ioos:station:TCOON:031:1,2016-08-02T00:18:00Z,28.4073,-96.7122,0.615,1111122 
TCOON,ioos:station:TCOON:031:1,2016-08-02T01:18:00Z,28.4073,-96.7122,0.616,1111122 
TCOON,ioos:station:TCOON:031:1,2016-08-02T02:18:00Z,28.4073,-96.7122,0.612,1111122 
TCOON,ioos:station:TCOON:031:1,2016-08-02T03:18:00Z,28.4073,-96.7122,0.6,1111122 
TCOON,ioos:station:TCOON:031:1,2016-08-02T04:18:00Z,28.4073,-96.7122,0.587,1111122 
TCOON,ioos:station:TCOON:031:1,2016-08-02T05:18:00Z,28.4073,-96.7122,0.584,1111122 
TCOON,ioos:station:TCOON:031:1,2016-08-02T06:18:00Z,28.4073,-96.7122,0.574,1111122 
TCOON,ioos:station:TCOON:031:1,2016-08-02T07:18:00Z,28.4073,-96.7122,0.555,1111122 
TCOON,ioos:station:TCOON:031:1,2016-08-02T08:18:00Z,28.4073,-96.7122,0.549,1111122 
TCOON,ioos:station:TCOON:031:1,2016-08-02T09:18:00Z,28.4073,-96.7122,0.527,1111122 
TCOON,ioos:station:TCOON:031:1,2016-08-02T10:18:00Z,28.4073,-96.7122,0.509,1111122 
TCOON,ioos:station:TCOON:031:1,2016-08-02T11:18:00Z,28.4073,-96.7122,0.5,1111122 
TCOON,ioos:station:TCOON:031:1,2016-08-02T12:18:00Z,28.4073,-96.7122,0.496,1111122 
TCOON,ioos:station:TCOON:031:1,2016-08-02T13:18:00Z,28.4073,-96.7122,0.501,1111122 
TCOON,ioos:station:TCOON:031:1,2016-08-02T14:18:00Z,28.4073,-96.7122,0.509,1111122 
TCOON,ioos:station:TCOON:031:1,2016-08-02T15:18:00Z,28.4073,-96.7122,0.527,1111122 
TCOON,ioos:station:TCOON:031:1,2016-08-02T16:18:00Z,28.4073,-96.7122,0.536,1111122 
TCOON,ioos:station:TCOON:031:1,2016-08-02T17:18:00Z,28.4073,-96.7122,0.544,1111122 
TCOON,ioos:station:TCOON:031:1,2016-08-02T18:18:00Z,28.4073,-96.7122,0.562,1111122 
TCOON,ioos:station:TCOON:031:1,2016-08-02T19:18:00Z,28.4073,-96.7122,0.568,1111122 
TCOON,ioos:station:TCOON:031:1,2016-08-02T20:18:00Z,28.4073,-96.7122,0.585,1111122 
TCOON,ioos:station:TCOON:031:1,2016-08-02T21:18:00Z,28.4073,-96.7122,0.606,1111122 
TCOON,ioos:station:TCOON:031:1,2016-08-02T22:18:00Z,28.4073,-96.7122,0.619,1111122 
TCOON,ioos:station:TCOON:031:1,2016-08-02T23:18:00Z,28.4073,-96.7122,0.627,1111122 
TCOON,ioos:station:TCOON:031:1,2016-08-03T00:18:00Z,28.4073,-96.7122,0.626,1111122 
TCOON,ioos:station:TCOON:031:1,2016-08-03T01:18:00Z,28.4073,-96.7122,0.636,1111122 
TCOON,ioos:station:TCOON:031:1,2016-08-03T02:18:00Z,28.4073,-96.7122,0.62,1111122 
TCOON,ioos:station:TCOON:031:1,2016-08-03T03:18:00Z,28.4073,-96.7122,0.626,1111122 
TCOON,ioos:station:TCOON:031:1,2016-08-03T04:18:00Z,28.4073,-96.7122,0.623,1111122 
TCOON,ioos:station:TCOON:031:1,2016-08-03T05:18:00Z,28.4073,-96.7122,0.6,1111122 
TCOON,ioos:station:TCOON:031:1,2016-08-03T06:18:00Z,28.4073,-96.7122,0.589,1111122 
TCOON,ioos:station:TCOON:031:1,2016-08-03T07:18:00Z,28.4073,-96.7122,0.582,1111122 
TCOON,ioos:station:TCOON:031:1,2016-08-03T08:18:00Z,28.4073,-96.7122,0.569,1111122 
TCOON,ioos:station:TCOON:031:1,2016-08-03T09:18:00Z,28.4073,-96.7122,0.555,1111122 
TCOON,ioos:station:TCOON:031:1,2016-08-03T10:18:00Z,28.4073,-96.7122,0.55,1111122 
TCOON,ioos:station:TCOON:031:1,2016-08-03T11:18:00Z,28.4073,-96.7122,0.528,1111122 
TCOON,ioos:station:TCOON:031:1,2016-08-03T12:18:00Z,28.4073,-96.7122,0.531,1111122 
TCOON,ioos:station:TCOON:031:1,2016-08-03T13:18:00Z,28.4073,-96.7122,0.533,1111122 
TCOON,ioos:station:TCOON:031:1,2016-08-03T14:18:00Z,28.4073,-96.7122,0.538,1111122 
TCOON,ioos:station:TCOON:031:1,2016-08-03T15:18:00Z,28.4073,-96.7122,0.552,1111122 
TCOON,ioos:station:TCOON:031:1,2016-08-03T16:18:00Z,28.4073,-96.7122,0.564,1111122 
TCOON,ioos:station:TCOON:031:1,2016-08-03T17:18:00Z,28.4073,-96.7122,0.574,1111122 
TCOON,ioos:station:TCOON:031:1,2016-08-03T18:18:00Z,28.4073,-96.7122,0.608,1111122 
TCOON,ioos:station:TCOON:031:1,2016-08-03T19:18:00Z,28.4073,-96.7122,0.615,1111122 
TCOON,ioos:station:TCOON:031:1,2016-08-05T20:18:00Z,28.4073,-96.7122,0.726,1111122 
TCOON,ioos:station:TCOON:031:1,2016-08-05T21:18:00Z,28.4073,-96.7122,0.731,1111122 
TCOON,ioos:station:TCOON:031:1,2016-08-05T22:18:00Z,28.4073,-96.7122,0.729,1111122 
TCOON,ioos:station:TCOON:031:1,2016-08-05T23:18:00Z,28.4073,-96.7122,0.739,1111122 
TCOON,ioos:station:TCOON:031:1,2016-08-06T00:18:00Z,28.4073,-96.7122,0.733,1111122 
TCOON,ioos:station:TCOON:031:1,2016-08-06T01:18:00Z,28.4073,-96.7122,0.721,1111122 
TCOON,ioos:station:TCOON:031:1,2016-08-06T02:18:00Z,28.4073,-96.7122,0.728,1111122 
TCOON,ioos:station:TCOON:031:1,2016-08-06T03:18:00Z,28.4073,-96.7122,0.736,1111122 
TCOON,ioos:station:TCOON:031:1,2016-08-06T04:18:00Z,28.4073,-96.7122,0.753,1111122 
TCOON,ioos:station:TCOON:031:1,2016-08-06T05:12:00Z,28.4073,-96.7122,0.738,1111122 
TCOON,ioos:station:TCOON:031:1,2016-08-06T06:18:00Z,28.4073,-96.7122,0.715,1111122 
TCOON,ioos:station:TCOON:031:1,2016-08-06T07:18:00Z,28.4073,-96.7122,0.727,1111122 
TCOON,ioos:station:TCOON:031:1,2016-08-06T08:18:00Z,28.4073,-96.7122,0.723,1111122 
TCOON,ioos:station:TCOON:031:1,2016-08-06T09:18:00Z,28.4073,-96.7122,0.705,1111122 
TCOON,ioos:station:TCOON:031:1,2016-08-06T10:18:00Z,28.4073,-96.7122,0.678,1111122 
TCOON,ioos:station:TCOON:031:1,2016-08-06T11:18:00Z,28.4073,-96.7122,0.677,1111122 
TCOON,ioos:station:TCOON:031:1,2016-08-06T12:18:00Z,28.4073,-96.7122,0.667,1111122 
TCOON,ioos:station:TCOON:031:1,2016-08-06T13:18:00Z,28.4073,-96.7122,0.655,1111122 
TCOON,ioos:station:TCOON:031:1,2016-08-06T14:18:00Z,28.4073,-96.7122,0.652,1111122 
TCOON,ioos:station:TCOON:031:1,2016-08-06T15:18:00Z,28.4073,-96.7122,0.633,1111122 
TCOON,ioos:station:TCOON:031:1,2016-08-06T16:18:00Z,28.4073,-96.7122,0.634,1111122 
TCOON,ioos:station:TCOON:031:1,2016-08-06T17:18:00Z,28.4073,-96.7122,0.65,1111122 
TCOON,ioos:station:TCOON:031:1,2016-08-06T18:18:00Z,28.4073,-96.7122,0.663,1111122 
TCOON,ioos:station:TCOON:031:1,2016-08-06T19:18:00Z,28.4073,-96.7122,0.669,1111122 
TCOON,ioos:station:TCOON:031:1,2016-08-06T20:18:00Z,28.4073,-96.7122,0.677,1111122 
TCOON,ioos:station:TCOON:031:1,2016-08-06T21:18:00Z,28.4073,-96.7122,0.663,1111122 
TCOON,ioos:station:TCOON:031:1,2016-08-06T22:18:00Z,28.4073,-96.7122,0.668,1111122 
TCOON,ioos:station:TCOON:031:1,2016-08-06T23:18:00Z,28.4073,-96.7122,0.666,1111122 
TCOON,ioos:station:TCOON:031:1,2016-08-07T00:18:00Z,28.4073,-96.7122,0.664,1111122 
TCOON,ioos:station:TCOON:031:1,2016-08-07T01:18:00Z,28.4073,-96.7122,0.671,1111122 
TCOON,ioos:station:TCOON:031:1,2016-08-07T02:18:00Z,28.4073,-96.7122,0.675,1111122 
TCOON,ioos:station:TCOON:031:1,2016-08-07T03:18:00Z,28.4073,-96.7122,0.672,1111122 
TCOON,ioos:station:TCOON:031:1,2016-08-07T04:18:00Z,28.4073,-96.7122,0.667,1111122 
TCOON,ioos:station:TCOON:031:1,2016-08-07T05:18:00Z,28.4073,-96.7122,0.665,1111122 
TCOON,ioos:station:TCOON:031:1,2016-08-07T06:18:00Z,28.4073,-96.7122,0.663,1111122 
TCOON,ioos:station:TCOON:031:1,2016-08-07T07:18:00Z,28.4073,-96.7122,0.671,1111122 
TCOON,ioos:station:TCOON:031:1,2016-08-07T08:18:00Z,28.4073,-96.7122,0.693,1111122 
TCOON,ioos:station:TCOON:031:1,2016-08-07T09:12:00Z,28.4073,-96.7122,0.674,1111122 
TCOON,ioos:station:TCOON:031:1,2016-08-07T10:18:00Z,28.4073,-96.7122,0.638,1111122 
TCOON,ioos:station:TCOON:031:1,2016-08-07T11:18:00Z,28.4073,-96.7122,0.628,1111122 
TCOON,ioos:station:TCOON:031:1,2016-08-07T12:12:00Z,28.4073,-96.7122,0.628,1111122 
TCOON,ioos:station:TCOON:031:1,2016-08-07T13:18:00Z,28.4073,-96.7122,0.628,1111122 
TCOON,ioos:station:TCOON:031:1,2016-08-07T14:18:00Z,28.4073,-96.7122,0.616,1111122 
TCOON,ioos:station:TCOON:031:1,2016-08-07T15:18:00Z,28.4073,-96.7122,0.614,1111122 
TCOON,ioos:station:TCOON:031:1,2016-08-07T16:12:00Z,28.4073,-96.7122,0.619,1111122 
TCOON,ioos:station:TCOON:031:1,2016-08-07T17:18:00Z,28.4073,-96.7122,0.621,1111122 
TCOON,ioos:station:TCOON:031:1,2016-08-07T18:18:00Z,28.4073,-96.7122,0.646,1111122 
TCOON,ioos:station:TCOON:031:1,2016-08-07T19:18:00Z,28.4073,-96.7122,0.647,1111122 
TCOON,ioos:station:TCOON:031:1,2016-08-07T20:18:00Z,28.4073,-96.7122,0.666,1111122 
TCOON,ioos:station:TCOON:031:1,2016-08-07T21:18:00Z,28.4073,-96.7122,0.667,1111122 
TCOON,ioos:station:TCOON:031:1,2016-08-07T22:18:00Z,28.4073,-96.7122,0.667,1111122 
TCOON,ioos:station:TCOON:031:1,2016-08-07T23:18:00Z,28.4073,-96.7122,0.652,1111122 
TCOON,ioos:station:TCOON:031:1,2016-08-08T00:18:00Z,28.4073,-96.7122,0.647,1111122 
TCOON,ioos:station:TCOON:031:1,2016-08-08T01:18:00Z,28.4073,-96.7122,0.648,1111122 
TCOON,ioos:station:TCOON:031:1,2016-08-08T02:18:00Z,28.4073,-96.7122,0.66,1111122 
TCOON,ioos:station:TCOON:031:1,2016-08-08T03:18:00Z,28.4073,-96.7122,0.669,1111122 
TCOON,ioos:station:TCOON:031:1,2016-08-08T04:18:00Z,28.4073,-96.7122,0.669,1111122 
TCOON,ioos:station:TCOON:031:1,2016-08-08T05:18:00Z,28.4073,-96.7122,0.647,1111122 
TCOON,ioos:station:TCOON:031:1,2016-08-08T06:18:00Z,28.4073,-96.7122,0.652,1111122 
TCOON,ioos:station:TCOON:031:1,2016-08-08T07:18:00Z,28.4073,-96.7122,0.649,1111122 
TCOON,ioos:station:TCOON:031:1,2016-08-08T08:18:00Z,28.4073,-96.7122,0.634,1111122 
TCOON,ioos:station:TCOON:031:1,2016-08-08T09:18:00Z,28.4073,-96.7122,0.628,1111122 
TCOON,ioos:station:TCOON:031:1,2016-08-08T10:18:00Z,28.4073,-96.7122,0.626,1111122 
TCOON,ioos:station:TCOON:031:1,2016-08-08T11:18:00Z,28.4073,-96.7122,0.627,1111122 
TCOON,ioos:station:TCOON:031:1,2016-08-08T12:18:00Z,28.4073,-96.7122,0.633,1111122 
TCOON,ioos:station:TCOON:031:1,2016-08-08T13:18:00Z,28.4073,-96.7122,0.623,1111122 
TCOON,ioos:station:TCOON:031:1,2016-08-08T14:18:00Z,28.4073,-96.7122,0.62,1111122 
TCOON,ioos:station:TCOON:031:1,2016-08-08T15:18:00Z,28.4073,-96.7122,0.619,1111122 
TCOON,ioos:station:TCOON:031:1,2016-08-08T16:18:00Z,28.4073,-96.7122,0.606,1111122 
TCOON,ioos:station:TCOON:031:1,2016-08-08T17:18:00Z,28.4073,-96.7122,0.607,1111122 
TCOON,ioos:station:TCOON:031:1,2016-08-08T18:18:00Z,28.4073,-96.7122,0.618,1111122 
TCOON,ioos:station:TCOON:031:1,2016-08-08T19:18:00Z,28.4073,-96.7122,0.631,1111122 
TCOON,ioos:station:TCOON:031:1,2016-08-08T20:18:00Z,28.4073,-96.7122,0.63,1111122 
TCOON,ioos:station:TCOON:031:1,2016-08-08T21:18:00Z,28.4073,-96.7122,0.618,1111122 
TCOON,ioos:station:TCOON:031:1,2016-08-08T22:18:00Z,28.4073,-96.7122,0.631,1111122 
TCOON,ioos:station:TCOON:031:1,2016-08-08T23:18:00Z,28.4073,-96.7122,0.633,1111122 
TCOON,ioos:station:TCOON:031:1,2016-08-09T00:18:00Z,28.4073,-96.7122,0.636,1111122 
TCOON,ioos:station:TCOON:031:1,2016-08-09T01:18:00Z,28.4073,-96.7122,0.63,1111122 
TCOON,ioos:station:TCOON:031:1,2016-08-09T02:12:00Z,28.4073,-96.7122,0.629,1111122 
TCOON,ioos:station:TCOON:031:1,2016-08-09T03:18:00Z,28.4073,-96.7122,0.613,1111122 
TCOON,ioos:station:TCOON:031:1,2016-08-09T04:18:00Z,28.4073,-96.7122,0.609,1111122 
TCOON,ioos:station:TCOON:031:1,2016-08-09T05:18:00Z,28.4073,-96.7122,0.605,1111122 
TCOON,ioos:station:TCOON:031:1,2016-08-09T06:18:00Z,28.4073,-96.7122,0.618,1111122 
TCOON,ioos:station:TCOON:031:1,2016-08-09T07:18:00Z,28.4073,-96.7122,0.634,1111122 
TCOON,ioos:station:TCOON:031:1,2016-08-09T08:18:00Z,28.4073,-96.7122,0.655,1111122 
TCOON,ioos:station:TCOON:031:1,2016-08-09T09:18:00Z,28.4073,-96.7122,0.669,1111122 
TCOON,ioos:station:TCOON:031:1,2016-08-09T10:18:00Z,28.4073,-96.7122,0.641,1111122 
TCOON,ioos:station:TCOON:031:1,2016-08-09T11:18:00Z,28.4073,-96.7122,0.646,1111122 
TCOON,ioos:station:TCOON:031:1,2016-08-09T12:18:00Z,28.4073,-96.7122,0.633,1111122 
TCOON,ioos:station:TCOON:031:1,2016-08-09T13:18:00Z,28.4073,-96.7122,0.621,1111122 
TCOON,ioos:station:TCOON:031:1,2016-08-09T14:18:00Z,28.4073,-96.7122,0.615,1111122 
TCOON,ioos:station:TCOON:031:1,2016-08-09T15:18:00Z,28.4073,-96.7122,0.631,1111122 
TCOON,ioos:station:TCOON:031:1,2016-08-09T16:18:00Z,28.4073,-96.7122,0.636,1111122 
TCOON,ioos:station:TCOON:031:1,2016-08-09T17:18:00Z,28.4073,-96.7122,0.636,1111122 
TCOON,ioos:station:TCOON:031:1,2016-08-09T18:18:00Z,28.4073,-96.7122,0.633,1111122 
TCOON,ioos:station:TCOON:031:1,2016-08-09T19:18:00Z,28.4073,-96.7122,0.641,1111122 
TCOON,ioos:station:TCOON:031:1,2016-08-09T20:18:00Z,28.4073,-96.7122,0.636,1111122 
TCOON,ioos:station:TCOON:031:1,2016-08-09T21:18:00Z,28.4073,-96.7122,0.635,1111122 
TCOON,ioos:station:TCOON:031:1,2016-08-09T22:18:00Z,28.4073,-96.7122,0.628,1111122 
TCOON,ioos:station:TCOON:031:1,2016-08-09T23:18:00Z,28.4073,-96.7122,0.634,1111122 
TCOON,ioos:station:TCOON:031:1,2016-08-10T00:18:00Z,28.4073,-96.7122,0.64,1111122 
TCOON,ioos:station:TCOON:031:1,2016-08-10T01:18:00Z,28.4073,-96.7122,0.622,1111122 
TCOON,ioos:station:TCOON:031:1,2016-08-10T02:18:00Z,28.4073,-96.7122,0.612,1111122 
TCOON,ioos:station:TCOON:031:1,2016-08-10T03:18:00Z,28.4073,-96.7122,0.621,1111122 
TCOON,ioos:station:TCOON:031:1,2016-08-10T04:18:00Z,28.4073,-96.7122,0.644,1111122 
TCOON,ioos:station:TCOON:031:1,2016-08-10T05:18:00Z,28.4073,-96.7122,0.625,1111122 
TCOON,ioos:station:TCOON:031:1,2016-08-10T06:54:00Z,28.4073,-96.7122,0.599,1111122 
TCOON,ioos:station:TCOON:031:1,2016-08-10T07:18:00Z,28.4073,-96.7122,0.612,1111122 
TCOON,ioos:station:TCOON:031:1,2016-08-10T08:18:00Z,28.4073,-96.7122,0.625,1111122 
TCOON,ioos:station:TCOON:031:1,2016-08-10T09:18:00Z,28.4073,-96.7122,0.609,1111122 
TCOON,ioos:station:TCOON:031:1,2016-08-10T10:18:00Z,28.4073,-96.7122,0.605,1111122 
TCOON,ioos:station:TCOON:031:1,2016-08-10T11:18:00Z,28.4073,-96.7122,0.582,1111122 
TCOON,ioos:station:TCOON:031:1,2016-08-10T12:18:00Z,28.4073,-96.7122,0.563,1111122 
TCOON,ioos:station:TCOON:031:1,2016-08-10T13:18:00Z,28.4073,-96.7122,0.572,1111122 
TCOON,ioos:station:TCOON:031:1,2016-08-10T14:18:00Z,28.4073,-96.7122,0.559,1111122 
TCOON,ioos:station:TCOON:031:1,2016-08-10T15:18:00Z,28.4073,-96.7122,0.567,1111122 
TCOON,ioos:station:TCOON:031:1,2016-08-10T16:18:00Z,28.4073,-96.7122,0.57,1111122 
TCOON,ioos:station:TCOON:031:1,2016-08-10T17:18:00Z,28.4073,-96.7122,0.58,1111122 
TCOON,ioos:station:TCOON:031:1,2016-08-10T18:18:00Z,28.4073,-96.7122,0.595,1111122 
TCOON,ioos:station:TCOON:031:1,2016-08-10T19:18:00Z,28.4073,-96.7122,0.584,1111122 
TCOON,ioos:station:TCOON:031:1,2016-08-10T20:18:00Z,28.4073,-96.7122,0.594,1111122 
TCOON,ioos:station:TCOON:031:1,2016-08-10T21:18:00Z,28.4073,-96.7122,0.602,1111122 
TCOON,ioos:station:TCOON:031:1,2016-08-10T22:18:00Z,28.4073,-96.7122,0.602,1111122 
TCOON,ioos:station:TCOON:031:1,2016-08-10T23:18:00Z,28.4073,-96.7122,0.601,1111122 
TCOON,ioos:station:TCOON:031:1,2016-08-11T00:18:00Z,28.4073,-96.7122,0.582,1111122 
TCOON,ioos:station:TCOON:031:1,2016-08-11T01:18:00Z,28.4073,-96.7122,0.573,1111122 
TCOON,ioos:station:TCOON:031:1,2016-08-11T02:18:00Z,28.4073,-96.7122,0.555,1111122 
TCOON,ioos:station:TCOON:031:1,2016-08-11T03:18:00Z,28.4073,-96.7122,0.563,1111122 
TCOON,ioos:station:TCOON:031:1,2016-08-11T04:18:00Z,28.4073,-96.7122,0.564,1111122 
TCOON,ioos:station:TCOON:031:1,2016-08-11T05:18:00Z,28.4073,-96.7122,0.58,1111122 
TCOON,ioos:station:TCOON:031:1,2016-08-11T06:18:00Z,28.4073,-96.7122,0.59,1111122 
TCOON,ioos:station:TCOON:031:1,2016-08-11T07:18:00Z,28.4073,-96.7122,0.567,1111122 
TCOON,ioos:station:TCOON:031:1,2016-08-11T08:18:00Z,28.4073,-96.7122,0.562,1111122 
TCOON,ioos:station:TCOON:031:1,2016-08-11T09:18:00Z,28.4073,-96.7122,0.557,1111122 
TCOON,ioos:station:TCOON:031:1,2016-08-11T10:18:00Z,28.4073,-96.7122,0.535,1111122 
TCOON,ioos:station:TCOON:031:1,2016-08-11T11:18:00Z,28.4073,-96.7122,0.522,1111122 
TCOON,ioos:station:TCOON:031:1,2016-08-11T12:18:00Z,28.4073,-96.7122,0.511,1111122 
TCOON,ioos:station:TCOON:031:1,2016-08-11T13:18:00Z,28.4073,-96.7122,0.52,1111122 
TCOON,ioos:station:TCOON:031:1,2016-08-11T14:18:00Z,28.4073,-96.7122,0.534,1111122 
TCOON,ioos:station:TCOON:031:1,2016-08-11T15:18:00Z,28.4073,-96.7122,0.545,1111122 
TCOON,ioos:station:TCOON:031:1,2016-08-11T16:18:00Z,28.4073,-96.7122,0.545,1111122 
TCOON,ioos:station:TCOON:031:1,2016-08-11T17:18:00Z,28.4073,-96.7122,0.545,1111122 
TCOON,ioos:station:TCOON:031:1,2016-08-11T18:18:00Z,28.4073,-96.7122,0.539,1111122 
TCOON,ioos:station:TCOON:031:1,2016-08-11T19:18:00Z,28.4073,-96.7122,0.555,1111122 
TCOON,ioos:station:TCOON:031:1,2016-08-11T20:18:00Z,28.4073,-96.7122,0.557,1111122 
TCOON,ioos:station:TCOON:031:1,2016-08-11T21:18:00Z,28.4073,-96.7122,0.537,1111122 
TCOON,ioos:station:TCOON:031:1,2016-08-11T22:18:00Z,28.4073,-96.7122,0.56,1111122 
TCOON,ioos:station:TCOON:031:1,2016-08-11T23:24:00Z,28.4073,-96.7122,0.549,1111122 
TCOON,ioos:station:TCOON:031:1,2016-08-12T00:36:00Z,28.4073,-96.7122,0.568,1111122 
TCOON,ioos:station:TCOON:031:1,2016-08-12T01:24:00Z,28.4073,-96.7122,0.584,1111122 
TCOON,ioos:station:TCOON:031:1,2016-08-12T02:18:00Z,28.4073,-96.7122,0.568,1111122 
TCOON,ioos:station:TCOON:031:1,2016-08-12T03:18:00Z,28.4073,-96.7122,0.549,1111122 
TCOON,ioos:station:TCOON:031:1,2016-08-12T04:18:00Z,28.4073,-96.7122,0.554,1111122 
TCOON,ioos:station:TCOON:031:1,2016-08-12T05:18:00Z,28.4073,-96.7122,0.567,1111122 
TCOON,ioos:station:TCOON:031:1,2016-08-12T06:12:00Z,28.4073,-96.7122,0.562,1111122 
TCOON,ioos:station:TCOON:031:1,2016-08-12T07:18:00Z,28.4073,-96.7122,0.568,1111122 
TCOON,ioos:station:TCOON:031:1,2016-08-12T08:18:00Z,28.4073,-96.7122,0.552,1111122 
TCOON,ioos:station:TCOON:031:1,2016-08-12T09:18:00Z,28.4073,-96.7122,0.563,1111122 
TCOON,ioos:station:TCOON:031:1,2016-08-12T10:18:00Z,28.4073,-96.7122,0.542,1111122 
TCOON,ioos:station:TCOON:031:1,2016-08-12T11:18:00Z,28.4073,-96.7122,0.534,1111122 
TCOON,ioos:station:TCOON:031:1,2016-08-12T12:18:00Z,28.4073,-96.7122,0.512,1111122 
TCOON,ioos:station:TCOON:031:1,2016-08-12T13:18:00Z,28.4073,-96.7122,0.484,1111122 
TCOON,ioos:station:TCOON:031:1,2016-08-12T14:18:00Z,28.4073,-96.7122,0.489,1111122 
TCOON,ioos:station:TCOON:031:1,2016-08-12T15:18:00Z,28.4073,-96.7122,0.51,1111122 
TCOON,ioos:station:TCOON:031:1,2016-08-12T16:18:00Z,28.4073,-96.7122,0.512,1111122 
TCOON,ioos:station:TCOON:031:1,2016-08-12T17:18:00Z,28.4073,-96.7122,0.499,1111122 
TCOON,ioos:station:TCOON:031:1,2016-08-12T18:18:00Z,28.4073,-96.7122,0.513,1111122 
TCOON,ioos:station:TCOON:031:1,2016-08-12T19:18:00Z,28.4073,-96.7122,0.514,1111122 
TCOON,ioos:station:TCOON:031:1,2016-08-12T20:18:00Z,28.4073,-96.7122,0.529,1111122 
TCOON,ioos:station:TCOON:031:1,2016-08-12T21:18:00Z,28.4073,-96.7122,0.517,1111122 
TCOON,ioos:station:TCOON:031:1,2016-08-12T22:18:00Z,28.4073,-96.7122,0.526,1111122 
TCOON,ioos:station:TCOON:031:1,2016-08-12T23:18:00Z,28.4073,-96.7122,0.545,1111122 
TCOON,ioos:station:TCOON:031:1,2016-08-13T00:18:00Z,28.4073,-96.7122,0.553,1111122 
TCOON,ioos:station:TCOON:031:1,2016-08-13T01:18:00Z,28.4073,-96.7122,0.539,1111122 
TCOON,ioos:station:TCOON:031:1,2016-08-13T02:18:00Z,28.4073,-96.7122,0.497,1111122 
TCOON,ioos:station:TCOON:031:1,2016-08-13T03:18:00Z,28.4073,-96.7122,0.463,1111122 
TCOON,ioos:station:TCOON:031:1,2016-08-13T04:18:00Z,28.4073,-96.7122,0.451,1111122 
TCOON,ioos:station:TCOON:031:1,2016-08-13T05:18:00Z,28.4073,-96.7122,0.46,1111122 
TCOON,ioos:station:TCOON:031:1,2016-08-13T06:18:00Z,28.4073,-96.7122,0.48,1111122 
TCOON,ioos:station:TCOON:031:1,2016-08-13T07:18:00Z,28.4073,-96.7122,0.497,1111122 
TCOON,ioos:station:TCOON:031:1,2016-08-13T08:18:00Z,28.4073,-96.7122,0.491,1111122 
TCOON,ioos:station:TCOON:031:1,2016-08-13T09:12:00Z,28.4073,-96.7122,0.466,1111122 
TCOON,ioos:station:TCOON:031:1,2016-08-13T10:18:00Z,28.4073,-96.7122,0.402,1111122 
TCOON,ioos:station:TCOON:031:1,2016-08-13T11:18:00Z,28.4073,-96.7122,0.393,1111122 
TCOON,ioos:station:TCOON:031:1,2016-08-13T12:18:00Z,28.4073,-96.7122,0.406,1111122 
TCOON,ioos:station:TCOON:031:1,2016-08-13T13:18:00Z,28.4073,-96.7122,0.415,1111122 
TCOON,ioos:station:TCOON:031:1,2016-08-13T14:18:00Z,28.4073,-96.7122,0.419,1111122 
TCOON,ioos:station:TCOON:031:1,2016-08-13T15:18:00Z,28.4073,-96.7122,0.451,1111122 
TCOON,ioos:station:TCOON:031:1,2016-08-13T16:18:00Z,28.4073,-96.7122,0.463,1111122 
TCOON,ioos:station:TCOON:031:1,2016-08-13T17:18:00Z,28.4073,-96.7122,0.466,1111122 
TCOON,ioos:station:TCOON:031:1,2016-08-13T18:18:00Z,28.4073,-96.7122,0.473,1111122 
TCOON,ioos:station:TCOON:031:1,2016-08-13T19:18:00Z,28.4073,-96.7122,0.455,1111122 
TCOON,ioos:station:TCOON:031:1,2016-08-13T20:18:00Z,28.4073,-96.7122,0.475,1111122 
TCOON,ioos:station:TCOON:031:1,2016-08-13T21:18:00Z,28.4073,-96.7122,0.487,1111122 
TCOON,ioos:station:TCOON:031:1,2016-08-13T22:18:00Z,28.4073,-96.7122,0.495,1111122 
TCOON,ioos:station:TCOON:031:1,2016-08-13T23:18:00Z,28.4073,-96.7122,0.468,1111122 
TCOON,ioos:station:TCOON:031:1,2016-08-14T00:18:00Z,28.4073,-96.7122,0.452,1111122 
TCOON,ioos:station:TCOON:031:1,2016-08-14T01:18:00Z,28.4073,-96.7122,0.425,1111122 
TCOON,ioos:station:TCOON:031:1,2016-08-14T02:18:00Z,28.4073,-96.7122,0.419,1111122 
TCOON,ioos:station:TCOON:031:1,2016-08-14T03:18:00Z,28.4073,-96.7122,0.409,1111122 
TCOON,ioos:station:TCOON:031:1,2016-08-14T04:18:00Z,28.4073,-96.7122,0.405,1111122 
TCOON,ioos:station:TCOON:031:1,2016-08-14T05:18:00Z,28.4073,-96.7122,0.404,1111122 
TCOON,ioos:station:TCOON:031:1,2016-08-14T06:18:00Z,28.4073,-96.7122,0.404,1111122 
TCOON,ioos:station:TCOON:031:1,2016-08-14T07:18:00Z,28.4073,-96.7122,0.402,1111122 
TCOON,ioos:station:TCOON:031:1,2016-08-14T08:18:00Z,28.4073,-96.7122,0.412,1111122 
TCOON,ioos:station:TCOON:031:1,2016-08-14T09:18:00Z,28.4073,-96.7122,0.413,1111122 
TCOON,ioos:station:TCOON:031:1,2016-08-14T10:18:00Z,28.4073,-96.7122,0.408,1111122 
TCOON,ioos:station:TCOON:031:1,2016-08-14T11:18:00Z,28.4073,-96.7122,0.377,1111122 
TCOON,ioos:station:TCOON:031:1,2016-08-14T12:18:00Z,28.4073,-96.7122,0.331,1111122 
TCOON,ioos:station:TCOON:031:1,2016-08-14T13:18:00Z,28.4073,-96.7122,0.361,1111122 
TCOON,ioos:station:TCOON:031:1,2016-08-14T14:18:00Z,28.4073,-96.7122,0.38,1111122 
TCOON,ioos:station:TCOON:031:1,2016-08-14T15:18:00Z,28.4073,-96.7122,0.419,1111122 
TCOON,ioos:station:TCOON:031:1,2016-08-14T16:18:00Z,28.4073,-96.7122,0.392,1111122 
TCOON,ioos:station:TCOON:031:1,2016-08-14T17:18:00Z,28.4073,-96.7122,0.407,1111122 
TCOON,ioos:station:TCOON:031:1,2016-08-14T18:18:00Z,28.4073,-96.7122,0.433,1111122 
TCOON,ioos:station:TCOON:031:1,2016-08-14T19:18:00Z,28.4073,-96.7122,0.454,1111122 
TCOON,ioos:station:TCOON:031:1,2016-08-14T20:18:00Z,28.4073,-96.7122,0.469,1111122 